星链-5867 (STARLINK-5867 )

导读

STARLINK-5867是美国于2023年3月17日发射的星链卫星,隶属于SpaceX星链星座项目。星链项目旨在构建全球卫星互联网通信网络,为偏远地区等提供宽带服务。该卫星的发射进一步扩充了星链星座的在轨规模,推进了全球覆盖的组网进程。

Basic Information
目录编号:
55918
目录名称:
STARLINK-5867
国际标识:
2023-037E
轨道中心:
EARTH
卫星名称:
星链-5867
卫星全名:
星链-5867 (STARLINK-5867 )
卫星状态:
在轨 (已飞行1186 天)
发射日期:
2023-03-17 UTC
国别 :
美国 (US)
星等 :
--
Orbit Information
数据来源 国际轨道数据 AOE轨道数据
星历时间 2026-06-14T18:01:54+0800
16小时前
查看轨道信息
2026-06-14T01:00:00+0800
1天前
查看轨道信息
半长轴 6950.192km 6950.185km
偏心率 0.000306 0.000317
轨道倾角 70.000° 70.002°
近地点辐角 261.922° 266.303°
升交点赤经 60.675° 62.464°
平近点角 98.159° 227.019°
近地点 569.928km 569.844km
远地点 574.182km 574.252km
周期 96.107分钟 96.107分钟
每日圈数 14.983305 14.983327
Detailed Information
固有亮度:
5
最大亮度:
2.5
卫星平台:
Starlink v1.5
覆盖范围:
全球
运营商:
太空探索技术公司
运营商所在国:
美国
制造商(研发单位):
太空探索技术公司
制造商所在国:
美国
使用方式:
暂无
Satellite Introduction
星链(Starlink)计划是由太空探索技术公司(SpaceX)提出的一个巨型低轨卫星互联网星座项目,计划在2019年至2024年间在太空搭建由约1.2万颗卫星组成的“星链”网络,其中1584颗将部署在地球上空550千米处的近地轨道,并从2020年开始工作。该卫星仍在工作。
2D Orbit Map
3D Orbit Map
Orbit Altitude Analysis Chart
Orbit Inclination Analysis Chart
Orbit Comprehensive Analysis Chart
View Comprehensive Chart